Location: Newark
(16.3678°N, 77.8722°E)
Time: 05:19:02
(UTC+00:00)

Vanguard 2 Rocket - All Passes

Search period start: 15 December 2019 00:00
Search period end: 25 December 2019 00:00
Orbit: 554 x 3326 km, 32.9° (Epoch: 14 December)

Date Brightness Start Highest point End Pass type
(mag) Time Alt. Az. Time Alt. Az. Time Alt. Az.
15 Dec - 06:23:14 10° SSW 06:39:06 34° SE 06:55:28 10° E daylight
15 Dec - 08:37:13 10° SW 08:57:40 77° SE 09:14:20 10° ENE daylight
15 Dec - 10:57:03 10° W 11:16:18 57° NNW 11:28:55 10° NE daylight
15 Dec - 13:21:22 10° WNW 13:34:25 33° N 13:42:33 10° NE visible
15 Dec - 15:42:48 10° NW 15:51:21 33° N 15:56:41 10° ENE visible
15 Dec - 17:59:23 10° WNW 18:05:38 76° SW 18:09:50 10° SE night (unlit)
16 Dec - 05:24:32 10° S 05:37:03 23° SE 05:50:56 10° E daylight
16 Dec - 07:36:04 10° SW 07:55:18 61° SE 08:13:12 10° ENE daylight
16 Dec - 09:53:40 10° WSW 10:14:10 71° NNW 10:28:59 10° NE daylight
16 Dec - 12:16:53 10° W 12:32:53 40° NNW 12:42:59 10° NE visible
16 Dec - 14:40:17 10° NW 14:50:43 32° N 14:57:09 10° ENE visible
16 Dec - 16:58:24 10° NW 17:06:11 64° NNE 17:10:55 10° ESE visible
16 Dec - 19:15:50 10° WSW 19:18:38 15° SW 19:21:04 10° S night (unlit)
17 Dec - 04:28:07 10° SSE 04:35:10 13° SE 04:42:57 10° ESE daylight
17 Dec - 06:35:46 10° SSW 06:53:02 47° SE 07:11:10 10° ENE daylight
17 Dec - 08:51:10 10° WSW 09:11:46 86° NNW 09:28:37 10° ENE daylight
17 Dec - 11:12:28 10° W 11:30:57 48° NNW 11:43:14 10° NE daylight
17 Dec - 13:36:48 10° WNW 13:49:36 34° N 13:57:30 10° ENE visible
17 Dec - 15:56:56 10° NW 16:06:15 47° NNE 16:11:43 10° E visible
17 Dec - 18:14:03 10° WNW 18:19:38 35° SW 18:23:35 10° SSE night (unlit)
18 Dec - 05:36:22 10° SSW 05:51:03 34° SE 06:07:56 10° E daylight
18 Dec - 07:49:35 10° SW 08:09:15 79° SE 08:27:43 10° ENE daylight
18 Dec - 10:08:38 10° W 10:28:38 58° NNW 10:43:13 10° NE daylight
18 Dec - 12:32:36 10° WNW 12:48:00 37° N 12:57:45 10° ENE visible
18 Dec - 14:54:46 10° NW 15:05:48 40° NNE 15:12:17 10° E visible
18 Dec - 17:12:38 10° WNW 17:20:29 71° SW 17:25:13 10° SE visible
19 Dec - 04:38:05 10° S 04:49:24 22° SE 05:02:53 10° E daylight
19 Dec - 06:48:52 10° SW 07:06:50 63° SE 07:26:07 10° ENE daylight
19 Dec - 09:05:39 10° WSW 09:26:02 70° NNW 09:42:50 10° NE daylight
19 Dec - 11:28:10 10° W 11:45:56 43° NNW 11:57:48 10° NE daylight
19 Dec - 13:51:46 10° WNW 14:04:49 38° N 14:12:38 10° ENE visible
19 Dec - 16:11:02 10° WNW 16:20:52 74° NNE 16:26:24 10° ESE visible
19 Dec - 18:29:43 10° W 18:33:21 16° SW 18:36:17 10° S night (unlit)
20 Dec - 03:42:33 10° SSE 03:48:00 12° SE 03:54:05 10° ESE daylight
20 Dec - 05:48:59 10° SSW 06:04:47 47° SE 06:23:36 10° ENE daylight
20 Dec - 08:03:37 10° WSW 08:23:20 84° NNW 08:41:59 10° ENE daylight
20 Dec - 10:24:02 10° W 10:43:26 50° NNW 10:57:37 10° NE daylight
20 Dec - 12:48:01 10° WNW 13:03:16 38° N 13:12:46 10° ENE visible
20 Dec - 15:08:58 10° NW 15:20:42 55° NNE 15:27:15 10° E visible
20 Dec - 17:27:19 10° WNW 17:34:21 36° SW 17:38:54 10° SSE visible
21 Dec - 04:50:00 10° SSW 05:03:10 34° SE 05:19:53 10° E daylight
21 Dec - 07:02:29 10° SW 07:20:43 80° SE 07:40:35 10° ENE daylight
21 Dec - 09:20:37 10° W 09:40:37 58° NNW 09:57:06 10° NE daylight
21 Dec - 11:43:50 10° WNW 12:01:10 41° N 12:12:39 10° ENE daylight
21 Dec - 14:06:17 10° NW 14:19:56 47° NNE 14:27:44 10° E visible
21 Dec - 16:25:18 10° WNW 16:35:05 68° SW 16:40:37 10° SE visible
22 Dec - 03:52:09 10° S 04:01:59 21° SE 04:14:23 10° E daylight
22 Dec - 06:02:12 10° SW 06:18:28 64° SE 06:38:29 10° ENE daylight
22 Dec - 08:18:08 10° WSW 08:37:40 69° NNW 08:56:12 10° ENE daylight
22 Dec - 10:39:40 10° W 10:58:33 45° N 11:12:17 10° ENE daylight
22 Dec - 13:03:00 10° WNW 13:18:32 43° N 13:27:54 10° ENE visible
22 Dec - 15:23:06 10° WNW 15:35:15 81° NNE 15:41:49 10° ESE visible
22 Dec - 17:42:56 10° W 17:47:58 19° SW 17:51:41 10° S night (unlit)
23 Dec - 02:58:09 10° SE 03:01:05 11° SE 03:04:15 10° ESE daylight
23 Dec - 05:02:43 10° SSW 05:16:44 47° SE 05:35:31 10° ENE daylight
23 Dec - 07:16:35 10° WSW 07:34:49 83° NNW 07:54:51 10° ENE daylight
23 Dec - 09:36:00 10° W 09:55:33 51° NNW 10:11:35 10° ENE daylight
23 Dec - 11:59:13 10° WNW 12:16:31 42° N 12:27:45 10° ENE daylight
23 Dec - 14:20:32 10° WNW 14:34:47 62° NNE 14:42:36 10° ESE visible
23 Dec - 16:40:01 10° WNW 16:48:52 39° SW 16:54:16 10° SSE visible
24 Dec - 04:04:04 10° SSW 04:15:34 33° SE 04:31:25 10° E daylight
24 Dec - 06:15:54 10° SW 06:32:18 82° SE 06:52:56 10° ENE daylight
24 Dec - 08:33:07 10° W 08:52:22 58° NNW 09:10:32 10° ENE daylight
24 Dec - 10:55:16 10° WNW 11:13:54 43° N 11:27:14 10° ENE daylight
24 Dec - 13:17:32 10° WNW 13:33:39 52° NNE 13:42:59 10° E visible
24 Dec - 15:37:25 10° WNW 15:49:23 67° SW 15:55:57 10° SE visible
